Location: Blangy-Tronville
(49.8790°N, 2.4226°E)
Time: 21:12:27
(UTC+00:00)

Resurs 1-3 - Pass Details

Date: 18 November 2025
Orbit: 613 x 615 km, 97.7° (Epoch: 05 December)

Event Time Altitude Azimuth Distance (km) Brightness Sun altitude
Rises 18:32:36 0° 176° (S) 2,872 7.0 -23.8°
Reaches altitude 10° 18:34:48 10° 181° (S) 1,971 6.2 -24.2°
Maximum altitude 18:39:01 56° 260° (W) 736 4.1 -24.8°
Drops below altitude 10° 18:43:16 10° 339° (NNW) 1,986 6.4 -25.5°
Sets 18:45:30 0° 344° (NNW) 2,896 7.2 -25.9°
